Location: Ballingbuur
(53.0000°N, 5.7667°E)
Time: 07:06:29
(UTC+00:00)

FALCON 9 DEB - Pass Details

Date: 29 November 2020
Orbit: 377 x 394 km, 53.0° (Epoch: 23 January)

Event Time Altitude Azimuth Distance (km) Brightness Sun altitude
Exits shadow 06:28:07 - 255° (WSW) 1,795 5.8 -8.2°
Reaches altitude 10° 06:28:59 10° 254° (WSW) 1,441 5.3 -8.1°
Maximum altitude 06:32:12 78° 169° (S) 412 3.1 -7.6°
Drops below altitude 10° 06:35:27 10° 82° (E) 1,453 6.7 -7.2°
Sets 06:37:32 0° 81° (E) 2,315 7.8 -6.9°
